AEE218 LGAV-LCPH

Flight info

Callsign AEE218
Flight time 1h 14m
Altitude 33000
Route KEA UL995 RDS UM601 EVENO M601 DASNI M32 TOBAL
Aircraft B737/M-SDE2E3FGHIRWXY/LB1

Departure

Time 2026-04-24 09:52
Airport Athens Eleftherios Venizelos International Airport (LGAV)

Arrival

Time 2026-04-24 11:07
Airport Paphos International Airport (LCPH)
Time Latitude Longitude Altitude Speed Heading
2026-04-24 09:36 37.92743 23.94141 300 ft 0 kts 38°
2026-04-24 09:37 37.92744 23.94141 300 ft 0 kts 38°
2026-04-24 09:44 37.92730 23.94127 302 ft 4 kts 40°
2026-04-24 09:44 37.92710 23.94104 303 ft 4 kts 49°
2026-04-24 09:44 37.92696 23.94076 301 ft 4 kts 81°
2026-04-24 09:45 37.92697 23.94057 300 ft 0 kts 127°
2026-04-24 09:48 37.92665 23.94111 301 ft 18 kts 127°
2026-04-24 09:49 37.92590 23.94236 302 ft 16 kts 127°
2026-04-24 09:49 37.92580 23.94253 302 ft 0 kts 127°
2026-04-24 09:50 37.92545 23.94312 304 ft 13 kts 127°
2026-04-24 09:50 37.92491 23.94405 307 ft 13 kts 121°
2026-04-24 09:51 37.92503 23.94467 307 ft 2 kts 41°
2026-04-24 09:51 37.92504 23.94469 307 ft 0 kts 41°
2026-04-24 09:52 37.92533 23.94500 306 ft 31 kts 41°
2026-04-24 09:52 37.92995 23.94942 294 ft 133 kts 37°
2026-04-24 09:52 37.93889 23.95814 878 ft 178 kts 38°
2026-04-24 09:52 37.94970 23.96849 2078 ft 191 kts 36°
2026-04-24 09:53 37.96025 23.97855 3462 ft 195 kts 36°
2026-04-24 09:53 37.97186 23.98963 3947 ft 224 kts 37°
2026-04-24 09:53 37.98476 24.00197 4587 ft 236 kts 37°
2026-04-24 09:53 37.99795 24.01461 5468 ft 240 kts 37°
2026-04-24 09:54 38.01136 24.02748 6374 ft 243 kts 38°
2026-04-24 09:54 38.02493 24.04051 6805 ft 245 kts 38°
2026-04-24 09:54 38.03861 24.05365 6981 ft 248 kts 37°
2026-04-24 09:54 38.05222 24.06675 7201 ft 245 kts 38°
2026-04-24 09:55 38.06586 24.07986 7522 ft 245 kts 37°
2026-04-24 09:55 38.07801 24.09514 7786 ft 250 kts 56°
2026-04-24 09:55 38.08537 24.11525 8093 ft 254 kts 73°
2026-04-24 09:55 38.08574 24.13765 8322 ft 263 kts 103°
2026-04-24 09:56 38.07798 24.15975 8840 ft 282 kts 116°
2026-04-24 09:56 38.06826 24.18163 9789 ft 287 kts 117°
2026-04-24 09:56 38.05812 24.20377 10560 ft 297 kts 118°
2026-04-24 09:56 38.04721 24.22754 10799 ft 326 kts 118°
2026-04-24 09:57 38.03550 24.25305 11421 ft 339 kts 118°
2026-04-24 09:57 38.02353 24.27916 12239 ft 346 kts 118°
2026-04-24 09:57 38.01139 24.30573 13186 ft 350 kts 118°
2026-04-24 09:57 37.99911 24.33266 14072 ft 355 kts 119°
2026-04-24 09:58 37.98690 24.35952 14992 ft 357 kts 118°
2026-04-24 09:58 37.97448 24.38687 16019 ft 357 kts 118°
2026-04-24 09:58 37.96192 24.41455 16687 ft 370 kts 121°
2026-04-24 09:58 37.94891 24.44319 17439 ft 378 kts 121°
2026-04-24 09:59 37.93567 24.47229 18306 ft 383 kts 121°
2026-04-24 09:59 37.92223 24.50184 19033 ft 389 kts 121°
2026-04-24 09:59 37.90865 24.53165 19798 ft 393 kts 122°
2026-04-24 09:59 37.89492 24.56180 20560 ft 397 kts 122°
2026-04-24 10:00 37.88105 24.59221 21364 ft 400 kts 122°
2026-04-24 10:00 37.87184 24.61241 21896 ft 401 kts 122°
2026-04-24 10:00 37.85316 24.65331 22831 ft 408 kts 122°
2026-04-24 10:00 37.83885 24.68463 23525 ft 413 kts 122°
2026-04-24 10:01 37.82906 24.70601 23949 ft 416 kts 122°
2026-04-24 10:01 37.81454 24.73774 24580 ft 418 kts 122°
2026-04-24 10:01 37.79989 24.76973 25200 ft 421 kts 122°
2026-04-24 10:01 37.78514 24.80188 25784 ft 425 kts 122°
2026-04-24 10:02 37.77041 24.83395 26340 ft 428 kts 122°
2026-04-24 10:02 37.75540 24.86662 26911 ft 432 kts 122°
2026-04-24 10:02 37.74025 24.89955 27466 ft 435 kts 122°
2026-04-24 10:02 37.72490 24.93287 27840 ft 443 kts 124°
2026-04-24 10:03 37.70926 24.96679 28250 ft 450 kts 124°
2026-04-24 10:03 37.69346 25.00108 28829 ft 451 kts 124°
2026-04-24 10:03 37.67761 25.03542 29220 ft 456 kts 126°
2026-04-24 10:03 37.66142 25.07043 29436 ft 465 kts 126°
2026-04-24 10:04 37.64504 25.10576 29881 ft 468 kts 126°
2026-04-24 10:04 37.62849 25.14133 30268 ft 471 kts 126°
2026-04-24 10:04 37.61214 25.17658 30792 ft 469 kts 126°
2026-04-24 10:04 37.59555 25.21240 31421 ft 465 kts 126°
2026-04-24 10:05 37.57945 25.24711 31978 ft 463 kts 126°
2026-04-24 10:05 37.56319 25.28207 32418 ft 463 kts 126°
2026-04-24 10:05 37.54686 25.31710 32795 ft 464 kts 126°
2026-04-24 10:05 37.53045 25.35226 33009 ft 468 kts 127°
2026-04-24 10:06 37.48026 25.45951 32996 ft 472 kts 127°
2026-04-24 10:07 37.44716 25.53024 33000 ft 468 kts 127°
2026-04-24 10:07 37.41396 25.60089 33012 ft 469 kts 127°
2026-04-24 10:08 37.38064 25.67166 32977 ft 471 kts 128°
2026-04-24 10:08 37.34702 25.74281 32977 ft 472 kts 128°
2026-04-24 10:09 37.31372 25.81351 32987 ft 474 kts 128°
2026-04-24 10:09 37.27989 25.88480 33007 ft 475 kts 129°
2026-04-24 10:10 37.24597 25.95613 32990 ft 476 kts 129°
2026-04-24 10:10 37.21193 26.02762 32996 ft 477 kts 129°
2026-04-24 10:11 37.17776 26.09926 33001 ft 478 kts 129°
2026-04-24 10:11 37.14357 26.17081 32991 ft 478 kts 129°
2026-04-24 10:12 37.10960 26.24177 32989 ft 477 kts 129°
2026-04-24 10:12 37.07548 26.31286 32988 ft 475 kts 129°
2026-04-24 10:13 37.04144 26.38362 32990 ft 474 kts 129°
2026-04-24 10:13 37.00736 26.45430 32993 ft 473 kts 129°
2026-04-24 10:14 36.97327 26.52483 32985 ft 474 kts 129°
2026-04-24 10:14 36.93913 26.59534 32975 ft 474 kts 129°
2026-04-24 10:15 36.90517 26.66534 32987 ft 474 kts 129°
2026-04-24 10:15 36.87084 26.73596 32972 ft 475 kts 129°
2026-04-24 10:16 36.83653 26.80638 32968 ft 475 kts 129°
2026-04-24 10:16 36.80210 26.87692 32951 ft 474 kts 129°
2026-04-24 10:17 36.76785 26.94693 32964 ft 474 kts 129°
2026-04-24 10:17 36.73337 27.01728 32966 ft 475 kts 129°
2026-04-24 10:18 36.69901 27.08724 32963 ft 476 kts 129°
2026-04-24 10:18 36.66603 27.15908 32968 ft 482 kts 122°
2026-04-24 10:19 36.63927 27.23585 32948 ft 484 kts 119°
2026-04-24 10:19 36.61329 27.31309 32955 ft 483 kts 120°
2026-04-24 10:20 36.58675 27.38973 32951 ft 482 kts 120°
2026-04-24 10:20 36.55984 27.46613 32951 ft 481 kts 120°
2026-04-24 10:21 36.53287 27.54236 32942 ft 481 kts 120°
2026-04-24 10:21 36.50612 27.61793 32940 ft 481 kts 120°
2026-04-24 10:22 36.47914 27.69402 32941 ft 480 kts 120°
2026-04-24 10:22 36.45208 27.77001 32939 ft 480 kts 120°
2026-04-24 10:23 36.42489 27.84590 32937 ft 480 kts 120°
2026-04-24 10:23 36.39767 27.92176 32938 ft 481 kts 121°
2026-04-24 10:24 36.37058 27.99714 32939 ft 481 kts 121°
2026-04-24 10:24 36.34329 28.07291 32917 ft 481 kts 120°
2026-04-24 10:25 36.32067 28.15160 32927 ft 486 kts 112°
2026-04-24 10:25 36.30123 28.23197 32940 ft 487 kts 112°
2026-04-24 10:26 36.28142 28.31168 32940 ft 487 kts 113°
2026-04-24 10:26 36.26087 28.39177 32919 ft 487 kts 113°
2026-04-24 10:27 36.24028 28.47160 32932 ft 486 kts 113°
2026-04-24 10:27 36.21964 28.55141 32938 ft 486 kts 113°
2026-04-24 10:28 36.19895 28.63092 32939 ft 485 kts 113°
2026-04-24 10:28 36.17820 28.71044 32930 ft 485 kts 114°
2026-04-24 10:29 36.15745 28.78978 32941 ft 484 kts 114°
2026-04-24 10:29 36.13662 28.86917 32949 ft 484 kts 114°
2026-04-24 10:30 36.11587 28.94805 32951 ft 485 kts 114°
2026-04-24 10:30 36.09491 29.02745 32948 ft 485 kts 114°
2026-04-24 10:31 36.07389 29.10687 32951 ft 485 kts 114°
2026-04-24 10:31 36.05297 29.18568 32946 ft 486 kts 114°
2026-04-24 10:32 36.03185 29.26498 32929 ft 486 kts 114°
2026-04-24 10:32 36.01068 29.34427 32944 ft 485 kts 114°
2026-04-24 10:33 35.98948 29.42344 32948 ft 485 kts 114°
2026-04-24 10:33 35.96821 29.50263 32948 ft 485 kts 114°
2026-04-24 10:34 35.94690 29.58168 32939 ft 485 kts 114°
2026-04-24 10:34 35.92553 29.66059 32948 ft 485 kts 114°
2026-04-24 10:35 35.90424 29.73902 32946 ft 485 kts 114°
2026-04-24 10:35 35.88277 29.81789 32946 ft 485 kts 114°
2026-04-24 10:36 35.86124 29.89683 32945 ft 485 kts 114°
2026-04-24 10:36 35.83970 29.97555 32948 ft 485 kts 114°
2026-04-24 10:37 35.81872 30.05464 32951 ft 486 kts 112°
2026-04-24 10:37 35.79895 30.13432 32927 ft 486 kts 112°
2026-04-24 10:38 35.77931 30.21352 32951 ft 486 kts 112°
2026-04-24 10:38 35.75934 30.29301 32950 ft 486 kts 112°
2026-04-24 10:39 35.73920 30.37250 32950 ft 486 kts 112°
2026-04-24 10:39 35.71902 30.45190 32950 ft 485 kts 112°
2026-04-24 10:40 35.69883 30.53114 32956 ft 485 kts 112°
2026-04-24 10:40 35.67859 30.61034 32951 ft 485 kts 112°
2026-04-24 10:41 35.65828 30.68960 32955 ft 485 kts 112°
2026-04-24 10:41 35.63810 30.76818 32955 ft 485 kts 112°
2026-04-24 10:42 35.61659 30.84667 32949 ft 481 kts 119°
2026-04-24 10:42 35.58311 30.91645 32958 ft 471 kts 130°
2026-04-24 10:43 35.54637 30.98327 32965 ft 471 kts 130°
2026-04-24 10:43 35.51001 31.04993 32951 ft 467 kts 130°
2026-04-24 10:44 35.47425 31.11621 32949 ft 464 kts 130°
2026-04-24 10:44 35.43900 31.18172 32951 ft 462 kts 130°
2026-04-24 10:45 35.40363 31.24732 32944 ft 461 kts 130°
2026-04-24 10:45 35.36819 31.31291 32962 ft 462 kts 130°
2026-04-24 10:46 35.33260 31.37863 32957 ft 463 kts 130°
2026-04-24 10:46 35.29690 31.44443 32957 ft 464 kts 130°
2026-04-24 10:47 35.26124 31.51005 32528 ft 468 kts 130°
2026-04-24 10:47 35.24315 31.54328 31872 ft 468 kts 130°
2026-04-24 10:47 35.22523 31.57624 31383 ft 462 kts 130°
2026-04-24 10:47 35.20748 31.60886 30840 ft 458 kts 131°
2026-04-24 10:48 35.19582 31.63027 30495 ft 456 kts 131°
2026-04-24 10:48 35.17828 31.66242 29972 ft 452 kts 131°
2026-04-24 10:48 35.16089 31.69425 29369 ft 448 kts 131°
2026-04-24 10:48 35.14360 31.72585 28792 ft 444 kts 131°
2026-04-24 10:49 35.12096 31.76721 28077 ft 438 kts 131°
2026-04-24 10:49 35.10976 31.78764 27703 ft 435 kts 131°
2026-04-24 10:49 35.09298 31.81823 27174 ft 431 kts 131°
2026-04-24 10:49 35.07630 31.84859 26621 ft 427 kts 131°
2026-04-24 10:50 35.05980 31.87862 26107 ft 424 kts 130°
2026-04-24 10:50 35.04345 31.90835 25593 ft 420 kts 130°
2026-04-24 10:50 35.02715 31.93796 25085 ft 417 kts 130°
2026-04-24 10:50 35.01103 31.96720 24549 ft 415 kts 130°
2026-04-24 10:51 34.99514 31.99602 24025 ft 413 kts 130°
2026-04-24 10:51 34.97915 32.02500 23487 ft 411 kts 130°
2026-04-24 10:51 34.96321 32.05389 22877 ft 409 kts 130°
2026-04-24 10:51 34.94740 32.08250 22308 ft 405 kts 130°
2026-04-24 10:52 34.93292 32.11191 21763 ft 407 kts 121°
2026-04-24 10:52 34.92261 32.14406 21263 ft 408 kts 110°
2026-04-24 10:52 34.91670 32.17793 20743 ft 408 kts 103°
2026-04-24 10:52 34.91237 32.21201 20222 ft 406 kts 102°
2026-04-24 10:53 34.90832 32.24594 19695 ft 403 kts 101°
2026-04-24 10:53 34.90426 32.27976 19174 ft 400 kts 101°
2026-04-24 10:53 34.90071 32.31335 18635 ft 399 kts 98°
2026-04-24 10:53 34.89809 32.34694 18070 ft 395 kts 97°
2026-04-24 10:54 34.89577 32.37948 17359 ft 387 kts 97°
2026-04-24 10:54 34.89353 32.41180 16647 ft 380 kts 97°
2026-04-24 10:54 34.89134 32.44372 15860 ft 376 kts 97°
2026-04-24 10:54 34.88912 32.47544 15112 ft 379 kts 97°
2026-04-24 10:55 34.88678 32.50763 14384 ft 383 kts 97°
2026-04-24 10:55 34.88397 32.54009 13641 ft 385 kts 100°
2026-04-24 10:55 34.87969 32.57234 12845 ft 387 kts 101°
2026-04-24 10:55 34.87487 32.60463 12111 ft 387 kts 102°
2026-04-24 10:56 34.86990 32.63665 11505 ft 383 kts 102°
2026-04-24 10:56 34.86483 32.66829 10905 ft 379 kts 102°
2026-04-24 10:56 34.85862 32.69935 10342 ft 375 kts 106°
2026-04-24 10:56 34.85154 32.72978 9746 ft 372 kts 107°
2026-04-24 10:57 34.84436 32.75960 9125 ft 360 kts 107°
2026-04-24 10:57 34.83733 32.78837 8478 ft 349 kts 107°
2026-04-24 10:57 34.83049 32.81590 7880 ft 339 kts 107°
2026-04-24 10:57 34.82375 32.84274 7431 ft 325 kts 107°
2026-04-24 10:58 34.81724 32.86852 7003 ft 313 kts 107°
2026-04-24 10:58 34.81055 32.89328 6501 ft 304 kts 115°
2026-04-24 10:58 34.79839 32.91350 6003 ft 294 kts 141°
2026-04-24 10:58 34.78076 32.92488 5544 ft 284 kts 168°
2026-04-24 10:59 34.76172 32.92525 5232 ft 270 kts 197°
2026-04-24 10:59 34.74515 32.91564 5124 ft 262 kts 216°
2026-04-24 10:59 34.73005 32.90298 5039 ft 266 kts 218°
2026-04-24 10:59 34.71494 32.88981 4921 ft 268 kts 218°
2026-04-24 11:00 34.70064 32.87547 4807 ft 265 kts 225°
2026-04-24 11:00 34.68761 32.85977 4673 ft 263 kts 231°
2026-04-24 11:00 34.67674 32.84206 4537 ft 261 kts 238°
2026-04-24 11:00 34.66685 32.82394 4425 ft 260 kts 239°
2026-04-24 11:01 34.65782 32.80506 4302 ft 257 kts 250°
2026-04-24 11:01 34.65170 32.78504 4210 ft 247 kts 252°
2026-04-24 11:01 34.64627 32.76561 4080 ft 238 kts 260°
2026-04-24 11:01 34.64481 32.74605 3987 ft 229 kts 268°
2026-04-24 11:02 34.64482 32.72671 3825 ft 228 kts 285°
2026-04-24 11:02 34.65066 32.70921 3590 ft 223 kts 293°
2026-04-24 11:02 34.65599 32.69159 3345 ft 221 kts 290°
2026-04-24 11:02 34.66098 32.67428 3035 ft 212 kts 290°
2026-04-24 11:03 34.66586 32.65787 2750 ft 201 kts 290°
2026-04-24 11:03 34.67052 32.64245 2481 ft 185 kts 289°
2026-04-24 11:03 34.67472 32.62851 2236 ft 167 kts 289°
2026-04-24 11:03 34.67849 32.61604 2051 ft 147 kts 289°
2026-04-24 11:04 34.68182 32.60497 1854 ft 135 kts 289°
2026-04-24 11:04 34.68502 32.59433 1690 ft 134 kts 289°
2026-04-24 11:04 34.68821 32.58380 1508 ft 133 kts 287°
2026-04-24 11:04 34.69140 32.57324 1339 ft 132 kts 288°
2026-04-24 11:05 34.69456 32.56279 1147 ft 131 kts 289°
2026-04-24 11:05 34.69765 32.55225 1029 ft 133 kts 288°
2026-04-24 11:05 34.70064 32.54122 827 ft 140 kts 288°
2026-04-24 11:05 34.70391 32.53025 658 ft 137 kts 292°
2026-04-24 11:06 34.70770 32.51975 419 ft 134 kts 290°
2026-04-24 11:06 34.71081 32.50917 260 ft 134 kts 287°
2026-04-24 11:06 34.71410 32.49842 94 ft 136 kts 288°
2026-04-24 11:06 34.71708 32.48819 47 ft 109 kts 292°
2026-04-24 11:07 34.71831 32.48379 45 ft 4 kts 169°
2026-04-24 11:07 34.71808 32.48399 45 ft 4 kts 158°
2026-04-24 11:07 34.71780 32.48403 45 ft 4 kts 188°
2026-04-24 11:08 34.71741 32.48391 45 ft 9 kts 194°
2026-04-24 11:08 34.71676 32.48393 45 ft 10 kts 135°
2026-04-24 11:08 34.71649 32.48470 45 ft 10 kts 111°
2026-04-24 11:08 34.71625 32.48547 45 ft 10 kts 111°
2026-04-24 11:09 34.71598 32.48638 44 ft 17 kts 110°
2026-04-24 11:09 34.71555 32.48780 42 ft 18 kts 110°
2026-04-24 11:09 34.71514 32.48875 44 ft 8 kts 155°
2026-04-24 11:09 34.71472 32.48845 44 ft 8 kts 242°
2026-04-24 11:10 34.71433 32.48811 45 ft 7 kts 170°
2026-04-24 11:10 34.71389 32.48833 45 ft 6 kts 155°
2026-04-24 11:10 34.71376 32.48841 45 ft 0 kts 154°